Location: ??????
(41.3164°N, 22.6615°E)
Time: 20:05:42
(UTC+00:00)

AO-91 - Visible Passes

Search period start: 26 June 2022 00:00
Search period end: 06 July 2022 00:00
Orbit: 450 x 799 km, 97.7° (Epoch: 26 June)

Date Brightness Start Highest point End Pass type
(mag) Time Alt. Az. Time Alt. Az. Time Alt. Az.
26 Jun ? 20:27:56 10° NE 20:29:14 15° ENE 20:29:14 15° ENE visible
26 Jun ? 22:03:45 10° NNW 22:06:30 23° WNW 22:06:30 23° WNW visible
27 Jun ? 20:46:03 10° NE 20:48:06 24° ENE 20:48:06 24° ENE visible
27 Jun ? 22:23:12 10° NNW 22:25:06 14° WNW 22:25:21 14° WNW visible
28 Jun ? 21:04:29 10° NNE 21:06:57 39° NE 21:06:57 39° NE visible
29 Jun ? 21:23:07 10° N 21:25:48 51° N 21:25:48 51° N visible
30 Jun ? 21:41:56 10° N 21:44:39 38° NW 21:44:39 38° NW visible
01 Jul ? 20:25:19 10° NE 20:26:14 13° ENE 20:26:14 13° ENE visible
01 Jul ? 22:00:58 10° NNW 22:03:29 24° WNW 22:03:29 24° WNW visible
02 Jul ? 20:43:18 10° NE 20:45:04 22° ENE 20:45:04 22° ENE visible
02 Jul ? 22:20:20 10° NNW 22:22:17 15° WNW 22:22:20 15° WNW visible
03 Jul ? 21:01:40 10° NNE 21:03:55 35° NE 21:03:55 35° NE visible
04 Jul ? 21:20:14 10° NNE 21:22:44 47° N 21:22:44 47° N visible
05 Jul ? 21:38:59 10° N 21:41:34 39° NW 21:41:34 39° NW visible
